Regional Weather Roundup
Issued by NWS

Home | Current Version | Previous Version | Text Only | Print | Product List | Glossary On
Versions: 1 2 3 4 5 6 7 8 9 10 11 12 13 14 15 16 17 18 19 20 21 22 23 24 25 26 27 28 29 30 31 32 33 34 35 36 37 38 39 40 41 42 43 44 45 46 47 48 49 50
000
ASUS45 KPSR 280610
RWRAZ

ARIZONA HOURLY REGIONAL WEATHER ROUNDUP
NATIONAL WEATHER SERVICE PHOENIX AZ
1100 PM MST THU APR 27 2017

NOTE: FAIR INDICATES FEW OR NO CLOUDS BELOW 12,000 FEET WITH NO
SIGNIFICANT WEATHER AND/OR OBSTRUCTIONS TO VISIBILITY.

AZZ001>003-036-280700-
NORTHWEST ARIZONA

CITY           SKY/WX    TMP DP  RH WIND       PRES   REMARKS
BULLHEAD CITY  PTCLDY    82  23  11 NW12G22   29.58R
KINGMAN        CLEAR     62  23  22 NW5       29.72R
6HR MIN TEMP:  54; 6HR MAX TEMP:  78;

$$

AZZ004>008-015-016-018-280700-
NORTH CENTRAL ARIZONA

CITY           SKY/WX    TMP DP  RH WIND       PRES   REMARKS
GRAND CANYON   CLOUDY    47  14  26 CALM      29.82S
6HR MIN TEMP:  47; 6HR MAX TEMP:  59;

WILLIAMS       CLEAR     50  21  32 W8        29.84S
PRESCOTT       CLEAR     59  32  36 SW12      29.78S
6HR MIN TEMP:  57; 6HR MAX TEMP:  70;

FLAGSTAFF      CLEAR     49  20  31 SW9       29.83S
6HR MIN TEMP:  49; 6HR MAX TEMP:  60;

PAYSON         MOCLDY    63  23  22 W7        29.81R
PAGE           PTCLDY    58  21  24 CALM      29.73R
6HR MIN TEMP:  58; 6HR MAX TEMP:  70;

$$

AZZ009>014-017-280700-
NORTHEAST ARIZONA

CITY           SKY/WX    TMP DP  RH WIND       PRES   REMARKS
WINSLOW        PTCLDY    50  21  32 W8        29.75S
6HR MIN TEMP:  50; 6HR MAX TEMP:  76;

SAINT JOHNS    PTCLDY    57  32  38 SW18G26   29.77S
6HR MIN TEMP:  54; 6HR MAX TEMP:  69;

WINDOW ROCK    CLOUDY    48  21  34 E6        29.78S
6HR MIN TEMP:  48; 6HR MAX TEMP:  64;

SHOW LOW       PTCLDY    50  30  46 S12       29.84F
$$

AZZ540-542>544-546-548-280700-
GREATER PHOENIX AREA

CITY           SKY/WX    TMP DP  RH WIND       PRES   REMARKS
PHOENIX        MOCLDY    80  37  21 SW7       29.58R
6HR MIN TEMP:  80; 6HR MAX TEMP:  89;

BUCKEYE        MOCLDY    73  32  21 W6        29.59S
LUKE AFB       CLOUDY    79  36  21 S9        29.57S
6HR MIN TEMP:  77; 6HR MAX TEMP:  90; 6HR PCP: TRACE;

DEER VALLEY    CLOUDY    74  32  21 S5        29.59S
6HR MIN TEMP:  74; 6HR MAX TEMP:  87;

SCOTTSDALE     MOCLDY    79  34  19 SW7       29.61S
6HR MIN TEMP:  79; 6HR MAX TEMP:  87;

MESA-GATEWAY   MOCLDY    73  37  27 SW8       29.61S
$$

AZZ539-553-280700-
SOUTHWEST MARICOPA COUNTY AND PINAL COUNTY

CITY           SKY/WX    TMP DP  RH WIND       PRES   REMARKS
CASA GRANDE    MOCLDY    74  38  27 W5        29.63R
6HR MIN TEMP:  74; 6HR MAX TEMP:  87;

GILA BEND      FAIR      79  47  32 SW13      29.59R
6HR MIN TEMP:  79; 6HR MAX TEMP:  91;

$$

AZZ503-504-507>509-280700-
SOUTHEAST ARIZONA

CITY           SKY/WX    TMP DP  RH WIND       PRES   REMARKS
TUCSON         CLEAR     73  39  29 S7        29.72S
6HR MIN TEMP:  73; 6HR MAX TEMP:  88;

DAVIS-MONTHAN  CLEAR     71  39  31 S7        29.72S
6HR MIN TEMP:  71; 6HR MAX TEMP:  87;

NOGALES        CLOUDY    69  42  37 S15       29.81F
6HR MIN TEMP:  67; 6HR MAX TEMP:  83;

SIERRA VISTA   CLOUDY    66  40  37 SW7       29.84F
6HR MIN TEMP:  66; 6HR MAX TEMP:  80;

DOUGLAS        CLOUDY    70  41  34 SW18      29.82S
6HR MIN TEMP:  70; 6HR MAX TEMP:  83;

SAFFORD        CLEAR     67  34  29 NW7       29.69S
6HR MIN TEMP:  67; 6HR MAX TEMP:  83; 6HR PCP: TRACE;

$$

AZZ532-280700-
SOUTHWEST ARIZONA

CITY           SKY/WX    TMP DP  RH WIND       PRES   REMARKS
YUMA           MOCLDY    77  56  48 S7        29.61S
6HR MIN TEMP:  77; 6HR MAX TEMP:  92;

$$

CAZ041-043-047-048-061-525>527-560>570-280700-
SOUTHERN CALIFORNIA

CITY           SKY/WX    TMP DP  RH WIND       PRES   REMARKS
DOWNTOWN L.A.  MOCLDY    75  36  24 NW10G25   29.75R
6HR MIN TEMP:  75; 6HR MAX TEMP:  85;

L.A. AIRPORT   PTCLDY    75  32  20 N18G28    29.75S
6HR MIN TEMP:  64; 6HR MAX TEMP:  76;

SAN DIEGO      MOCLDY    63  59  87 S7        29.80F
6HR MIN TEMP:  63; 6HR MAX TEMP:  67;

BURBANK        PTCLDY    70  35  27 N8        29.80S
6HR MIN TEMP:  70; 6HR MAX TEMP:  81;

ONTARIO        CLOUDY    67  46  47 S5        29.73F
6HR MIN TEMP:  66; 6HR MAX TEMP:  76;

RIVERSIDE      CLOUDY    68  45  43 CALM      29.74S
6HR MIN TEMP:  68; 6HR MAX TEMP:  77;

PALM SPRINGS   MOCLDY    79  44  28 NW8       29.59F
6HR MIN TEMP:  78; 6HR MAX TEMP:  90;

EL CENTRO NAS  MOCLDY    75  44  33 W12       29.60S
6HR MIN TEMP:  75; 6HR MAX TEMP:  93; 6HR PCP: TRACE;

IMPERIAL       MOCLDY    75  50  41 SW6       29.57S
6HR MIN TEMP:  74; 6HR MAX TEMP:  93;

BLYTHE         PTCLDY    81  35  19 N12       29.57F
6HR MIN TEMP:  81; 6HR MAX TEMP:  93;

NEEDLES        CLEAR     80  36  20 NW16G26   29.58R
6HR MIN TEMP:  80; 6HR MAX TEMP:  93;

$$

NVZ020-UTZ003-280700-
SOUTHERN NEVADA-UTAH

CITY           SKY/WX    TMP DP  RH WIND       PRES   REMARKS
LAS VEGAS      PTCLDY    72   2   6 N23G32    29.68R
6HR MIN TEMP:  72; 6HR MAX TEMP:  84;

SALT LAKE CITY MOCLDY    39  31  72 N10       29.87R WCI  32
6HR MIN TEMP:  39; 6HR MAX TEMP:  51;

$$

NMZ009-TXZ055-280700-
NEW MEXICO-WEST TEXAS

CITY           SKY/WX    TMP DP  RH WIND       PRES   REMARKS
ALBUQUERQUE    MOCLDY    56  23  27 N7        29.74F
6HR MIN TEMP:  56; 6HR MAX TEMP:  66;

EL PASO        CLOUDY    78  31  17 W21G29    29.69R
6HR MIN TEMP:  78; 6HR MAX TEMP:  87;

$$


........................KEY........................
SKY/WX - SKY CONDITION/WEATHER
TMP    - TEMPERATURE IN FAHRENHEIT
DP     - DEW POINT IN FAHRENHEIT
RH     - RELATIVE HUMIDITY IN PERCENT
WIND   - DIRECTION AND SPEED IN MILES PER HOUR (MPH)
VRB    - VARIABLE WIND DIRECTION
PRES   - MEAN SEA LEVEL PRESSURE IN INCHES OF MERCURY
         F - FALLING PRESSURE   R - RISING PRESSURE
         S - STEADY PRESSURE
VSB    - VISIBILITY IN MILES
HX     - HEAT INDEX IN FAHRENHEIT
WCI    - WIND CHILL INDEX IN FAHRENHEIT
TC     - TEMPERATURE IN CELSIUS WHICH IS ALSO KNOWN AS
         TEMPERATURE IN CENTIGRADE
AFB    - AIR FORCE BASE
         LUKE AFB IS LUKE AIR FORCE BASE
         DAVIS-MONTHAN IS DAVIS-MONTHAN AIR FORCE BASE
NAS    - NAVAL AIR STATION
         EL CENTRO NAS IS EL CENTRO NAVAL AIR STATION
N/A    - NOT AVAILABLE




USA.gov is the U.S. government's official web portal to all federal, state and local government web resources and services.